GW1938 Weather Reports


time (UTC)temp
F
wind
direction
speed
knots
gust
knots
rain 1hr
in
rain 24hr
in
rain mn
in
humidity
%
barometer
mb
20260902224608 75 342 17.4 22.6 0.00 0.00 0.00 44 1009.1
20260902224106 75 340 16.5 20.0 0.00 0.00 0.00 45 1009.1
20260902223552 74 342 14.8 20.0 0.00 0.00 0.00 46 1009.2
20260902223049 73 336 13.0 17.4 0.00 0.00 0.00 47 1009.3
20260902222546 73 335 9.6 13.0 0.00 0.00 0.00 50 1009.4
20260902222044 73 346 6.1 7.8 0.00 0.00 0.00 55 1009.5
20260902221544 72 4 4.3 6.1 0.00 0.00 0.00 59 1009.6
20260902221042 70 13 4.3 6.1 0.00 0.00 0.00 60 1009.6
20260902220541 69 20 4.3 6.1 0.00 0.00 0.00 61 1009.6
20260902220040 69 28 4.3 7.0 0.00 0.00 0.00 60 1009.6
20260902215036 68 33 4.3 7.0 0.00 0.00 0.00 59 1009.7
20260902214535 68 31 5.2 7.0 0.00 0.00 0.00 61 1009.7
20260902213531 68 23 6.1 8.7 0.00 0.00 0.00 57 1009.8
20260902213030 68 15 5.2 8.7 0.00 0.00 0.00 54 1009.8
20260902212528 68 11 6.1 7.8 0.00 0.00 0.00 56 1009.8
20260902211020 68 5 6.1 11.3 0.00 0.00 0.00 53 1009.8
20260902210519 68 11 7.8 14.8 0.00 0.00 0.00 52 1009.9
20260902210018 67 2 8.7 10.4 0.00 0.00 0.00 55 1009.8
20260902205508 66 1 6.1 8.7 0.00 0.00 0.00 57 1009.7
20260902205006 65 0 5.2 7.0 0.00 0.00 0.00 60 1009.8
20260902204504 66 355 6.1 9.6 0.00 0.00 0.00 58 1009.9
20260902204001 66 353 7.0 9.6 0.00 0.00 0.00 55 1009.9
20260902203500 66 3 7.8 10.4 0.00 0.00 0.00 57 1009.6
20260902202454 66 55 5.2 7.8 0.00 0.00 0.00 63 1009.8
20260902201951 65 69 3.5 6.1 0.00 0.00 0.00 59 1009.8
20260902201448 65 53 3.5 4.3 0.00 0.00 0.00 62 1009.9
20260902200947 64 19 3.5 5.2 0.00 0.00 0.00 62 1009.9
20260902200445 64 355 5.2 7.0 0.00 0.00 0.00 62 1010.0
20260902195942 64 1 7.0 7.8 0.00 0.00 0.00 62 1009.9
20260902195439 64 351 7.0 7.8 0.00 0.00 0.00 62 1009.9
20260902194434 64 5 7.0 8.7 0.00 0.00 0.00 63 1009.9
20260902193430 64 0 4.3 6.1 0.00 0.00 0.00 64 1009.9
20260902192923 64 351 5.2 7.8 0.00 0.00 0.00 68 1010.0
20260902192339 64 346 5.2 6.1 0.00 0.00 0.00 65 1010.0
20260902191837 64 15 3.5 6.1 0.00 0.00 0.00 63 1009.9
20260902191334 64 349 3.5 7.8 0.00 0.00 0.00 63 1010.0
20260902190832 64 336 1.7 3.5 0.00 0.00 0.00 63 1009.9
20260902185824 65 35 2.6 5.2 0.00 0.00 0.00 62 1010.1
20260902185323 64 41 4.3 9.6 0.00 0.00 0.00 64 1010.0
20260902184821 64 24 3.5 4.3 0.00 0.00 0.00 71 1010.1
20260902184320 64 79 2.6 4.3 0.00 0.00 0.00 70 1010.1
20260902183815 64 32 3.5 7.8 0.00 0.00 0.00 70 1010.3
20260902183312 64 1 5.2 8.7 0.00 0.00 0.00 68 1010.3
20260902182808 64 360 7.0 8.7 0.00 0.00 0.00 66 1010.2
20260902182306 64 353 6.1 7.8 0.00 0.00 0.00 66 1010.4
20260902181805 64 357 5.2 7.0 0.00 0.00 0.00 64 1010.3
20260902180748 65 322 3.5 4.3 0.00 0.00 0.00 61 1010.5
20260902180244 65 317 3.5 4.3 0.00 0.00 0.00 62 1010.5
20260902175743 65 333 2.6 3.5 0.00 0.00 0.00 64 1010.6
20260902175240 65 325 2.6 4.3 0.00 0.00 0.00 64 1010.7
20260902173726 65 310 3.5 4.3 0.00 0.00 0.00 65 1010.8
20260902173225 64 307 3.5 4.3 0.00 0.00 0.00 68 1010.9
20260902171213 64 333 7.0 8.7 0.00 0.00 0.00 67 1011.0
20260902170208 64 342 8.7 11.3 0.00 0.00 0.00 68 1010.9
20260902165703 64 345 7.8 10.4 0.00 0.00 0.00 70 1010.9
20260902165159 65 5 4.3 7.0 0.00 0.00 0.00 67 1010.9
20260902164656 65 337 4.3 7.0 0.00 0.00 0.00 62 1011.2
20260902164153 66 299 2.6 5.2 0.00 0.00 0.00 59 1011.5
20260902163650 65 317 3.5 6.1 0.00 0.00 0.00 59 1011.5
20260902163148 66 322 5.2 9.6 0.00 0.00 0.00 60 1011.7
20260902162645 66 325 6.1 10.4 0.00 0.00 0.00 61 1011.8
20260902162143 66 319 5.2 10.4 0.00 0.00 0.00 58 1011.7
20260902161641 66 309 7.0 10.4 0.00 0.00 0.00 57 1012.0
20260902161139 66 306 6.1 9.6 0.00 0.00 0.00 58 1011.9
20260902160637 66 303 5.2 7.8 0.00 0.00 0.00 56 1012.0
20260902160131 67 307 7.0 10.4 0.00 0.00 0.00 55 1011.9
20260902155629 66 316 7.8 10.4 0.00 0.00 0.00 56 1012.0
20260902155129 65 308 7.8 8.7 0.00 0.00 0.00 59 1012.0
20260902154122 65 312 6.1 7.8 0.00 0.00 0.00 60 1012.2
20260902153619 65 319 5.2 8.7 0.00 0.00 0.00 65 1012.3
20260902153116 65 318 4.3 6.1 0.00 0.00 0.00 60 1012.3
20260902152614 65 317 3.5 4.3 0.00 0.00 0.00 59 1012.3
20260902152111 65 316 3.5 4.3 0.00 0.00 0.00 58 1012.4
20260902151611 65 309 2.6 3.5 0.00 0.00 0.00 58 1012.4
20260902151109 65 292 2.6 4.3 0.00 0.00 0.00 58 1012.4
20260902145559 64 349 1.7 2.6 0.00 0.00 0.00 61 1012.5
20260902145056 64 338 2.6 3.5 0.00 0.00 0.00 61 1012.5
20260902144553 64 337 3.5 4.3 0.00 0.00 0.00 61 1012.6
20260902144052 64 335 4.3 7.8 0.00 0.00 0.00 60 1012.5
20260902143551 65 331 6.1 7.8 0.00 0.00 0.00 59 1012.5
20260902143049 65 332 6.1 7.8 0.00 0.00 0.00 57 1012.5
20260902142547 65 329 4.3 7.0 0.00 0.00 0.00 57 1012.5
20260902141542 66 312 5.2 6.1 0.00 0.00 0.00 55 1012.7
20260902141040 65 316 6.1 7.8 0.00 0.00 0.00 56 1012.8
20260902140538 0 320 7.0 9.6 0.00 0.00 0.00
20260902140037 65 322 7.0 9.6 0.00 0.00 0.00 60 1012.8
20260902135537 64 326 6.1 7.0 0.00 0.00 0.00 61 1012.7
20260902135035 64 328 7.0 9.6 0.00 0.00 0.00 61 1012.7
20260902134533 65 327 6.1 7.0 0.00 0.00 0.00 59 1012.8
20260902133528 65 319 4.3 6.1 0.00 0.00 0.00 59 1012.9
20260902133026 65 325 2.6 4.3 0.00 0.00 0.00 56 1012.9
20260902132525 66 324 2.6 7.0 0.00 0.00 0.00 57 1012.8
20260902132024 66 317 4.3 5.2 0.00 0.00 0.00 58 1012.9
20260902131523 66 317 4.3 7.0 0.00 0.00 0.00 57 1012.9
20260902131022 66 318 4.3 6.1 0.00 0.00 0.00 56 1012.9
20260902130017 66 306 5.2 6.1 0.00 0.00 0.00 55 1013.0
20260902125012 67 308 6.1 7.0 0.00 0.00 0.00 56 1013.1
20260902124511 67 309 6.1 7.8 0.00 0.00 0.00 54 1013.0
20260902123506 68 307 7.0 7.8 0.00 0.00 0.00 50 1013.2
20260902123005 68 305 7.0 7.8 0.00 0.00 0.00 50 1013.3
20260902122503 68 307 7.0 9.6 0.00 0.00 0.00 51 1013.4
20260902122002 68 311 7.8 9.6 0.00 0.00 0.00 51 1013.5
20260902120452 68 308 6.1 7.8 0.00 0.00 0.00 50 1013.5
20260902115951 68 297 5.2 7.0 0.00 0.00 0.00 49 1013.5
20260902114945 68 302 5.2 7.0 0.00 0.00 0.00 50 1013.5
20260902114443 68 301 3.5 5.2 0.00 0.00 0.00 50 1013.4
20260902113941 68 313 2.6 3.5 0.00 0.00 0.00 53 1013.5
20260902113439 68 304 2.6 5.2 0.00 0.00 0.00 52 1013.5
20260902112936 68 310 2.6 6.1 0.00 0.00 0.00 53 1013.5
20260902110422 69 312 3.5 5.2 0.00 0.00 0.00 50 1013.6
20260902105919 69 317 4.3 7.0 0.00 0.00 0.00 48 1013.6
20260902105416 69 316 6.1 7.8 0.00 0.00 0.00 49 1013.5
20260902104915 69 319 4.3 7.0 0.00 0.00 0.00 49 1013.5
20260902104413 68 321 3.5 5.2 0.00 0.00 0.00 50 1013.4
20260902103406 69 310 2.6 4.3 0.00 0.00 0.00 49 1013.3
20260902102903 69 318 3.5 6.1 0.00 0.00 0.00 49 1013.3
20260902102401 69 325 4.3 7.8 0.00 0.00 0.00 48 1013.2
20260902101356 69 301 1.7 3.5 0.00 0.00 0.00 48 1013.2
20260902100852 68 303 1.7 3.5 0.00 0.00 0.00 50 1013.1
20260902100350 68 321 2.6 5.2 0.00 0.00 0.00 51 1013.1
20260902095846 69 328 4.3 7.0 0.00 0.00 0.00 50 1013.0
20260902095344 69 331 5.2 7.0 0.00 0.00 0.00 50 1012.9
20260902094843 69 321 4.3 6.1 0.00 0.00 0.00 49 1012.9
20260902094341 69 324 4.3 7.0 0.00 0.00 0.00 49 1012.9
20260902093838 69 332 5.2 7.8 0.00 0.00 0.00 48 1012.9
20260902093336 69 329 6.1 7.0 0.00 0.00 0.00 47 1012.8
20260902092832 69 336 7.8 8.7 0.00 0.00 0.00 49 1012.7
20260902092329 69 338 8.7 10.4 0.00 0.00 0.00 47 1012.7
20260902091827 70 340 9.6 11.3 0.00 0.00 0.00 46 1012.7
20260902091326 70 342 10.4 11.3 0.00 0.00 0.00 46 1012.6
20260902090824 70 340 10.4 11.3 0.00 0.00 0.00 46 1012.6
20260902090320 71 340 11.3 11.3 0.00 0.00 0.00 45 1012.6
20260902085820 71 340 11.3 11.3 0.00 0.00 0.00 45 1012.4
20260902085318 71 339 12.2 12.2 0.00 0.00 0.00 44 1012.5
20260902084312 72 335 13.0 13.0 0.00 0.00 0.00 43 1012.4
20260902083809 72 333 12.2 13.0 0.00 0.00 0.00 43 1012.3
20260902083308 72 332 12.2 13.0 0.00 0.00 0.00 44 1012.3
20260902082805 72 332 11.3 13.0 0.00 0.00 0.00 44 1012.3
20260902082308 72 334 12.2 13.9 0.00 0.00 0.00 43 1012.3
20260902081801 73 336 12.2 13.0 0.00 0.00 0.00 42 1012.3
20260902080757 73 338 12.2 12.2 0.00 0.00 0.00 42 1012.3
20260902080255 73 339 11.3 12.2 0.00 0.00 0.00 42 1012.2
20260902075249 73 335 10.4 11.3 0.00 0.00 0.00 43 1012.2
20260902074747 73 333 7.8 11.3 0.00 0.00 0.00 42 1012.2
20260902074245 73 331 7.8 9.6 0.00 0.00 0.00 42 1012.1
20260902073236 73 323 8.7 13.0 0.00 0.00 0.00 43 1012.1
20260902072231 74 329 7.8 10.4 0.00 0.00 0.00 41 1012.0
20260902071728 74 320 10.4 14.8 0.00 0.00 0.00 44 1011.9
20260902071225 74 309 12.2 15.6 0.00 0.00 0.00 44 1011.9
20260902070721 75 312 12.2 14.8 0.00 0.00 0.00 42 1011.9
20260902070218 75 308 11.3 15.6 0.00 0.00 0.00 42 1011.9
20260902065716 76 308 9.6 16.5 0.00 0.00 0.00 41 1011.9
20260902065214 76 314 11.3 17.4 0.00 0.00 0.00 40 1011.8
20260902064711 76 315 17.4 21.7 0.00 0.00 0.00 39 1011.8
20260902064208 77 313 15.6 25.2 0.00 0.00 0.00 37 1011.8
20260902062658 76 310 11.3 18.2 0.00 0.00 0.00 40 1011.8
20260902062156 77 308 7.8 15.6 0.00 0.00 0.00 39 1011.8
20260902061653 77 306 12.2 18.2 0.00 0.00 0.00 39 1011.8
20260902061151 77 309 13.0 18.2 0.00 0.00 0.00 40 1011.8
20260902060649 77 307 12.2 19.1 0.00 0.00 0.00 38 1011.7
20260902060146 78 308 13.0 19.1 0.00 0.00 0.00 37 1011.6
20260902055645 78 308 15.6 20.9 0.00 0.00 0.00 38 1011.7
20260902054639 77 308 14.8 21.7 0.00 0.00 0.00 41 1011.7
20260902054135 77 308 10.4 18.2 0.00 0.00 0.00 41 1011.8
20260902053633 78 307 13.9 21.7 0.00 0.00 0.00 37 1011.8
20260902053130 78 310 19.1 24.3 0.00 0.00 0.00 37 1011.7
20260902052627 78 313 18.2 26.9 0.00 0.00 0.00 37 1011.7
20260902052125 78 309 16.5 24.3 0.00 0.00 0.00 37 1011.7
20260902051623 79 305 11.3 19.1 0.00 0.00 0.00 36 1011.7
20260902051122 78 310 13.0 20.9 0.00 0.00 0.00 37 1011.8
20260902045615 78 312 14.8 20.0 0.00 0.00 0.00 39 1011.9
20260902045113 78 311 16.5 26.9 0.00 0.00 0.00 39 1012.0
20260902044612 78 307 11.3 21.7 0.00 0.00 0.00 38 1012.0
20260902044110 78 310 17.4 26.1 0.00 0.00 0.00 38 1012.0
20260902043608 79 306 11.3 18.2 0.00 0.00 0.00 37 1012.2
20260902043104 78 310 13.9 22.6 0.00 0.00 0.00 41 1012.3
20260902042602 78 306 13.0 21.7 0.00 0.00 0.00 39 1012.2
20260902042059 78 304 8.7 17.4 0.00 0.00 0.00 39 1012.2
20260902041558 78 298 9.6 18.2 0.00 0.00 0.00 38 1012.2
20260902041054 78 310 13.9 21.7 0.00 0.00 0.00 37 1012.3
20260902040258 78 308 9.6 22.6 0.00 0.00 0.00 39 1012.2
20260902035756 78 306 9.6 17.4 0.00 0.00 0.00 40 1012.4
20260902034634 78 309 12.2 20.0 0.00 0.00 0.00 41 1012.6
20260902034133 78 306 13.0 21.7 0.00 0.00 0.00 39 1012.6
20260902033129 76 309 6.1 14.8 0.00 0.00 0.00 48 1012.8
20260902032124 76 345 2.6 6.1 0.00 0.00 0.00 45 1013.0
20260902031623 76 358 2.6 3.5 0.00 0.00 0.00 46 1013.1
20260902031123 76 10 2.6 4.3 0.00 0.00 0.00 49 1013.1
20260902030621 75 22 2.6 4.3 0.00 0.00 0.00 48 1013.2
20260902030118 74 56 3.5 5.2 0.00 0.00 0.00 50 1013.3
20260902025617 74 62 4.3 6.1 0.00 0.00 0.00 50 1013.4
20260902025116 74 51 4.3 7.0 0.00 0.00 0.00 51 1013.5
20260902024111 71 46 3.5 7.0 0.00 0.00 0.00 59 1013.7
20260902023609 71 42 3.5 5.2 0.00 0.00 0.00 61 1013.8
20260902023101 71 38 3.5 5.2 0.00 0.00 0.00 60 1013.9
20260902022600 72 40 3.5 5.2 0.00 0.00 0.00 59 1014.0
20260902022059 73 41 2.6 3.5 0.00 0.00 0.00 57 1014.2
20260902021557 73 44 3.5 5.2 0.00 0.00 0.00 58 1014.3
20260902020533 73 41 2.6 5.2 0.00 0.00 0.00 57 1014.7
20260902020032 73 51 4.3 6.1 0.00 0.00 0.00 60 1014.9
20260902015027 73 38 3.5 5.2 0.00 0.00 0.00 57 1014.9
20260902014023 71 29 3.5 5.2 0.00 0.00 0.00 62 1015.1
20260902013018 68 17 3.5 6.1 0.00 0.00 0.00 69 1015.3
20260902012013 67 34 2.6 3.5 0.00 0.00 0.00 68 1015.4
20260902011512 67 30 2.6 4.3 0.00 0.00 0.00 68 1015.5
20260902011011 68 21 2.6 4.3 0.00 0.00 0.00 66 1015.6
20260902010510 69 10 3.5 4.3 0.00 0.00 0.00 65 1015.6
20260902003926 67 11 3.5 4.3 0.00 0.00 0.00 67 1016.0
20260902003425 66 12 3.5 4.3 0.00 0.00 0.00 67 1016.1
20260902002924 67 6 2.6 4.3 0.00 0.00 0.00 68 1016.3
20260902002422 66 9 2.6 4.3 0.00 0.00 0.00 69 1016.4
20260902001922 66 10 2.6 4.3 0.00 0.00 0.00 68 1016.5
20260902001420 65 13 2.6 4.3 0.00 0.00 0.00 67 1016.7
20260902000919 65 15 2.6 3.5 0.00 0.00 0.00 64 1016.8
20260902000418 66 5 3.5 4.3 0.00 0.00 0.00 59 1016.9
20260901235413 67 10 1.7 2.6 0.00 0.00 0.00 59 1017.1
20260901234912 67 8 1.7 2.6 0.00 0.00 0.00 59 1017.0
20260901233903 68 344 0.9 2.6 0.00 0.00 0.00 54 1017.0
20260901233403 69 324 0.9 1.7 0.00 0.00 0.00 57 1017.1
20260901232902 69 309 0.9 1.7 0.00 0.00 0.00 51 1017.2
20260901230348 69 41 0.9 2.6 0.00 0.00 0.00 54 1017.2
20260901225846 68 358 0.9 1.7 0.00 0.00 0.00 54 1017.3
20260901224806 66 331 1.7 3.5 0.00 0.00 0.00 55 1017.3